Terminal Aerodrome Forecast
Issued by NWS Grand Forks, ND

Home | Current Version | Previous Version | Graphics & Text | Print | Product List | Glossary On
Versions: 1 2 3 4 5 6 7 8 9 10 11 12 13 14
000
FTUS43 KFGF 160500
TAFFAR
TAF
KFAR 160520Z 1606/1706 08015KT P6SM OVC050
     FM161100 05015G23KT 4SM -SN OVC025
     FM161700 04022G30KT P6SM BKN035=

USA.gov is the U.S. government's official web portal to all federal, state and local government web resources and services.